Clayton Lake, ME

7:14 PM EDT on April 25, 2017 (GMT -0400)
Clayton Lake

Weather History for K40B - December, 2012

Change the Weather History Date:

Sunday, December 30, 2012

  Actual Average Record
Temperature  
Mean Temperature 10 °F -  
Max Temperature 17 °F 21 °F 39 °F (2003)
Min Temperature 2 °F 0 °F -11 °F (2004)
Degree Days  
Heating Degree Days 55    
Moisture  
Dew Point 10 °F    
Average Humidity 88    
Maximum Humidity 91    
Minimum Humidity 81    
Precipitation  
Precipitation 0.57 in - - ()
Sea Level Pressure  
Sea Level Pressure 29.63 in    
Wind  
Wind Speed 4 mph (WSW)    
Max Wind Speed 8 mph    
Max Gust Speed 22 mph    
Averages and records for this station are not official NWS values.
T = Trace of Precipitation, MM = Missing Value Source: NWS Daily Summary

Daily Weather History Graph

Daily Weather History Graph

Search for Another Location

Airport or City:

Trip Planner

Search our weather history database for the weather conditions in past years. The results will help you decide how hot, cold, wet, or windy it might be!

Date:

Astronomy

Dec. 30, 2012 Rise Set
Actual Time 7:22 AM EST 3:59 PM EST
Civil Twilight 6:47 AM EST 4:34 PM EST
Nautical Twilight 6:08 AM EST 5:13 PM EST
Astronomical Twilight 5:32 AM EST 5:49 PM EST
Moon 6:37 PM EST (12/30) 8:20 AM EST (12/30)
Length of Visible Light 9h 47m
Length of Day
8h 37m
Waning Gibbous, 95% of the Moon is Illuminated
Dec 30
Waning Gibbous
Jan 4
Last Quarter
Jan 11
New
Jan 18
First Quarter
Jan 26
Full

Hourly Weather History & Observations

Time (EST) Temp. Windchill Dew Point Humidity Pressure Visibility Wind Dir Wind Speed Gust Speed Precip Events Conditions
12:26 AM 16.0 °F 8.8 °F 13.5 °F 90% 29.65 in - Variable 4.6 mph - 0.01 in   Unknown
1:25 AM 15.8 °F 8.6 °F 13.5 °F 90% 29.63 in - Variable 4.6 mph - 0.01 in   Unknown
2:25 AM 15.6 °F - 13.3 °F 90% 29.63 in - Variable 2.3 mph - 0.01 in   Unknown
3:25 AM 15.1 °F - 12.6 °F 90% 29.61 in - Variable 2.3 mph - 0.01 in   Unknown
4:25 AM 14.4 °F - 11.7 °F 89% 29.59 in - Calm Calm - 0.02 in   Unknown
5:25 AM 14.4 °F 8.6 °F 11.8 °F 90% 29.58 in - Variable 3.5 mph - N/A   Unknown
6:25 AM 15.1 °F - 12.6 °F 90% 29.59 in - Variable 2.3 mph - 0.02 in   Unknown
7:25 AM 15.3 °F 9.6 °F 12.9 °F 90% 29.60 in - Variable 3.5 mph - 0.01 in   Unknown
8:25 AM 15.1 °F 9.4 °F 12.6 °F 90% 29.59 in - Variable 3.5 mph - 0.01 in   Unknown
9:25 AM 15.4 °F 9.8 °F 12.9 °F 90% 29.59 in - Variable 3.5 mph 17.3 mph 0.04 in   Unknown
10:25 AM 15.4 °F 8.1 °F 13.1 °F 90% 29.59 in - Variable 4.6 mph 15.0 mph 0.05 in   Unknown
11:25 AM 16.2 °F 6.5 °F 14.0 °F 91% 29.58 in - Variable 6.9 mph 16.1 mph 0.08 in   Unknown
12:28 PM 17.4 °F 10.4 °F 15.1 °F 91% 29.57 in - Variable 4.6 mph 16.1 mph N/A   Unknown
1:25 PM 16.5 °F 6.9 °F 14.0 °F 90% 29.57 in - Variable 6.9 mph 18.4 mph 0.06 in   Unknown
2:25 PM 16.0 °F 8.8 °F 13.6 °F 90% 29.58 in - Variable 4.6 mph 18.4 mph 0.03 in   Unknown
3:25 PM 15.3 °F 7.9 °F 12.9 °F 90% 29.61 in - Variable 4.6 mph 15.0 mph 0.06 in   Unknown
4:25 PM 13.6 °F 6.0 °F 11.1 °F 90% 29.63 in - Variable 4.6 mph 17.3 mph 0.02 in   Unknown
5:25 PM 11.7 °F 0.0 °F 8.8 °F 88% 29.65 in - WSW 8.1 mph 19.6 mph 0.04 in   Unknown
6:25 PM 10.0 °F -1.9 °F 7.0 °F 87% 29.67 in - WSW 8.1 mph 18.4 mph 0.01 in   Unknown
7:25 PM 7.5 °F -1.1 °F 4.1 °F 86% 29.69 in - Variable 4.6 mph 18.4 mph 0.03 in   Unknown
8:25 PM 6.1 °F -6.8 °F 2.3 °F 84% 29.70 in - WSW 8.1 mph 21.9 mph 0.01 in   Unknown
9:25 PM 4.8 °F -8.3 °F 0.3 °F 82% 29.72 in - WSW 8.1 mph 20.7 mph 0.03 in   Unknown
10:27 PM 3.6 °F -8.7 °F -1.1 °F 81% 29.73 in - Variable 6.9 mph 20.7 mph N/A   Unknown
11:25 PM 2.3 °F -7.2 °F -2.4 °F 81% 29.75 in - Variable 4.6 mph - 0.02 in   Unknown